Flag for Germany Weather past 2 weeks in Mühlacker, Baden-Württemberg, Germany

Now
50 °F

Passing clouds.


Feels Like: 46 °F
Forecast: 37 / 46 °F
Wind: 9 mph from Southwest

Location: Stuttgart-Echterdingen

Current Time: Mar 1, 2015 at 6:52:16 PM

Latest Report: Mar 1, 2015 at 6:20 PM


Visibility: N/A

Pressure: 29.74 "Hg

Humidity: 76%

Dew point: 43 °F

Location of MühlackerLocation

Historic Weather in Mühlacker — Graph

°F

Mühlacker temperature yesterday

Maximum temperature yesterday: 43 °F (at 2:20 PM)
Minimum temperature yesterday: 34 °F (at 7:20 AM)
Average temperature yesterday: 38 °F

Past Weeks' High & Low Weather Summary

 TemperatureHumidityPressure
High55 °F (Feb 20, 2:20 PM)100% (Feb 15, 2:20 AM)30.69 "Hg (Feb 15, 2:20 AM)
Low23 °F (Feb 20, 4:20 AM)34% (Feb 26, 3:20 PM)29.50 "Hg (Feb 23, 3:20 PM)
Average35 °F82%30.01 "Hg
* Reported Feb 14 5:20 PM — Mar 1 5:50 PM, Mühlacker, Weather by CustomWeather, © 2015

Note: Actual official high and low records may vary slightly from our data, if they occured in-between our weather recording intervals... More about our weather records

Advertising

Mühlacker weather history for previous 24 hours

 ConditionsComfort  
Time TempWeatherWind HumidityBarometerVisibility
5:50 PM
Sun, Mar 1
48 °FPartly sunny.7 mph82%29.77 "HgN/A
5:20 PM50 °FPartly sunny.6 mph82%29.74 "HgN/A
4:20 PM48 °FPartly sunny.5 mph87%29.77 "HgN/A
3:50 PM48 °FSprinkles. Partly sunny.7 mph87%29.77 "HgN/A
3:20 PM48 °FSprinkles. Partly sunny.7 mph87%29.77 "HgN/A
2:50 PM50 °FPartly sunny.12 mph76%29.77 "HgN/A
2:20 PM50 °FPartly sunny.9 mph76%29.77 "HgN/A
1:50 PM48 °FLight rain. Partly sunny.8 mph82%29.77 "HgN/A
1:20 PM48 °FPartly sunny.9 mph82%29.77 "HgN/A
12:50 PM46 °FPartly sunny.8 mph87%29.80 "HgN/A
12:20 PM46 °FPartly sunny.10 mph82%29.80 "HgN/A
11:50 AM46 °FPartly sunny.13 mph82%29.80 "HgN/A
11:20 AM46 °FPartly sunny.12 mph82%29.77 "HgN/A
10:50 AM45 °FBroken clouds.14 mph81%29.77 "HgN/A
10:20 AM43 °FBroken clouds.13 mph87%29.77 "HgN/A
9:50 AM41 °FBroken clouds.15 mph87%29.77 "HgN/A
9:20 AM39 °FBroken clouds.5 mph87%29.80 "HgN/A
8:50 AM37 °FPartly sunny.5 mph93%29.80 "HgN/A
8:20 AM36 °FBroken clouds.6 mph93%29.80 "HgN/A
7:50 AM36 °FLight rain. Broken clouds.3 mph93%29.80 "HgN/A
7:20 AM36 °FLight rain. Broken clouds.2 mph87%29.80 "HgN/A
6:50 AM36 °FLight rain. Passing clouds.3 mph87%29.80 "HgN/A
6:20 AM36 °FRain. Partly cloudy.6 mph87%29.80 "HgN/A
5:50 AM36 °FLight rain. Partly cloudy.5 mph81%29.83 "HgN/A
5:20 AM36 °FLight rain. Partly cloudy.6 mph81%29.83 "HgN/A
4:50 AM36 °FLight rain. Partly cloudy.6 mph81%29.83 "HgN/A
4:20 AM34 °FClear.7 mph87%29.86 "Hg10 mi
3:50 AM34 °FClear.3 mph87%29.86 "Hg10 mi
3:20 AM34 °FClear.5 mph87%29.86 "Hg10 mi
2:50 AM34 °FClear.3 mph87%29.89 "Hg10 mi
2:20 AM34 °FClear.2 mph87%29.89 "Hg10 mi
1:50 AM34 °FPassing clouds.3 mph81%29.92 "HgN/A
1:20 AM34 °FClear.5 mph81%29.92 "Hg10 mi
12:50 AM32 °FPassing clouds.3 mph87%29.95 "HgN/A
12:20 AM34 °FClear.2 mph87%29.95 "Hg10 mi
11:50 PM
Sat, Feb 28
34 °FPassing clouds.3 mph81%29.95 "HgN/A
11:20 PM34 °FClear.5 mph87%29.98 "Hg10 mi
10:50 PM34 °FClear.5 mph87%29.98 "Hg10 mi
10:20 PM34 °FClear.5 mph87%30.01 "Hg10 mi
9:50 PM34 °FPassing clouds.5 mph81%30.01 "HgN/A
9:20 PM36 °FPassing clouds.6 mph81%30.01 "HgN/A
8:50 PM36 °FPassing clouds.6 mph81%30.04 "HgN/A
8:20 PM37 °FPassing clouds.5 mph75%30.04 "HgN/A
7:50 PM37 °FPassing clouds.6 mph75%30.04 "HgN/A
7:20 PM37 °FClear.7 mph75%30.04 "Hg10 mi
6:50 PM39 °FClear.7 mph70%30.04 "Hg10 mi
6:20 PM39 °FPassing clouds.7 mph70%30.04 "HgN/A
Weather by CustomWeather, © 2015

See weather overviewHow to use our weather pages